Find Local Weather

World > North America > United States > Illinois

Matteson, Illinois Regional Weather

Lat: 41.51N, Lon: 87.74W
Wx Zone: ILZ014
Warning FLW WEATHER ALERT - (More Info. Click Here) Warning
Feedback
Expires:201812111400;;630916
ASUS43 KLOT 111308
RWRIL 

ILLINOIS REGIONAL WEATHER ROUNDUP
NATIONAL WEATHER SERVICE CHICAGO/ROMEOVILLE IL
700 AM CST TUE DEC 11 2018

NOTE: "FAIR" INDICATES FEW OR NO CLOUDS BELOW 12,000 FEET WITH NO
SIGNIFICANT WEATHER AND/OR OBSTRUCTIONS TO VISIBILITY.

* THESE STATIONS ARE NOT UNDER NWS QUALITY CONTROL. THEY ALSO MAY NOT
  REPORT WEATHER SUCH AS PRECIPITATION OR FOG.


ILZ005-006-012>014-019>023-111400-
NORTHEAST ILLINOIS
  
CITY           SKY/WX    TMP DP  RH WIND       PRES   REMARKS
CHICAGO-OHARE  FAIR      26  22  84 SW7       30.05R WCI  18          
CHICAGO-MIDWAY FAIR      26  21  81 SW9       30.06S FOG     WCI  17  
AURORA         FAIR      24  20  84 SW8       30.06S FOG     WCI  15  
LANSING*       FAIR      22  19  89 SW7       30.08F FOG     WCI  14  
JOLIET*        FAIR      27  24  88 SW7       30.08F WCI  20          
WAUKEGAN       FAIR      26  21  81 W5        30.02R HAZE    WCI  20  
DUPAGE AIRPORT FAIR      24  20  84 SW10      30.05S FOG     WCI  14  
KANKAKEE*      FAIR      23  19  85 CALM      30.11S                  
WHEELING       FAIR      27  21  78 SW6       30.06S WCI  20          
MORRIS*        FAIR      23  21  90 SW8       30.08S FOG     WCI  14  
ROMEOVILLE*    FAIR      25  22  90 SW10      30.07S FOG     WCI  15  
NORTHERLY ISL    N/A     28  23  81 SW6         N/A  WCI  22          
$$


SKY/WX - Weather  TMP - Temperature  DP - Dew Point  RH - Relative Humidity
WIND - Wind Direction/Speed PRES - Barometric Pressure